Location: Les Moreaux
(47.2278°N, 1.4966°E)
Time: 01:07:17
(UTC+00:00)

Cosmos 2184 Rocket - Pass Details

Date: 19 May 2025
Orbit: 959 x 1000 km, 82.9° (Epoch: 18 June)

Event Time Altitude Azimuth Distance (km) Brightness Sun altitude
Rises 19:52:51 0° 352° (N) 3,676 7.7 -4.3°
Reaches altitude 10° 19:55:23 10° 356° (N) 2,730 7.0 -4.6°
Maximum altitude 20:01:37 68° 79° (E) 1,056 4.1 -5.4°
Drops below altitude 10° 20:07:52 10° 162° (SSE) 2,741 5.9 -6.3°
Enters shadow 20:10:18 - 165° (SSE) 3,645 6.5 -6.6°
